Flag for U.S.A. Weather past 2 weeks in Lawrence, Kansas, U.S.A.

Now
73 °F

Broken clouds.


Feels Like: 72 °F
Forecast: 65 / 87 °F
Wind: 3 mph from Northeast

Location: Lawrence Municipal Airport

Current Time: Aug 29, 2014 at 10:00:47 PM

Latest Report: Aug 29, 2014 at 8:52 PM


Visibility: 10 mi

Pressure: 29.79 "Hg

Humidity: 84%

Dew point: 68 °F

Location of LawrenceLocation

Historic Weather in Lawrence — Graph

°F

Lawrence temperature yesterday

Maximum temperature yesterday: 98 °F (at 2:52 PM)
Minimum temperature yesterday: 76 °F (at 3:52 AM)
Average temperature yesterday: 86 °F

Past Weeks' High & Low Weather Summary

 TemperatureHumidityPressure
High103 °F (Aug 23, 2:52 PM)94% (Aug 17, 1:52 AM)30.13 "Hg (Aug 17, 1:52 AM)
Low64 °F (Aug 17, 5:52 AM)23% (Aug 23, 4:52 PM)29.70 "Hg (Aug 19, 4:52 AM)
Average83 °F64%29.88 "Hg
* Reported Aug 14 8:52 PM — Aug 29 8:52 PM, Lawrence, Weather by CustomWeather, © 2014

Note: Actual official high and low records may vary slightly from our data, if they occured in-between our weather recording intervals... More about our weather records

Advertising

Lawrence weather history for previous 24 hours

 ConditionsComfort  
Time TempWeatherWind HumidityBarometerVisibility
8:52 PM
Aug 29
73 °FBroken clouds.3 mph84%29.79 "Hg10 mi
7:59 PM75 °FThunderstorms. Mostly cloudy.13 mph74%29.81 "Hg2 mi
6:52 PM88 °FThundershowers. Mostly cloudy.8 mph43%29.74 "Hg10 mi
5:52 PM91 °FScattered clouds.13 mph39%29.75 "Hg10 mi
4:52 PM91 °FScattered clouds.13 mph41%29.76 "Hg10 mi
3:52 PM91 °FScattered clouds.9 mph42%29.76 "Hg10 mi
1:52 PM84 °FPassing clouds.9 mph57%29.81 "Hg10 mi
12:52 PM81 °FScattered clouds.9 mph67%29.84 "Hg10 mi
11:52 AM77 °FMore clouds than sun.8 mph74%29.87 "Hg10 mi
10:52 AM78 °FScattered clouds.5 mph74%29.85 "Hg10 mi
9:52 AM78 °FPartly sunny.7 mph66%29.85 "Hg10 mi
8:52 AM78 °FPartly sunny.3 mph66%29.85 "Hg10 mi
7:52 AM73 °FHaze.5 mph79%29.84 "Hg5 mi
6:52 AM71 °FPassing clouds.No wind81%29.83 "Hg5 mi
5:52 AM71 °FOvercast.3 mph81%29.83 "Hg7 mi
4:52 AM71 °FClear.No wind76%29.83 "Hg8 mi
3:52 AM71 °FClear.6 mph76%29.81 "Hg8 mi
2:52 AM72 °FClear.6 mph76%29.81 "Hg8 mi
1:52 AM76 °FPassing clouds.6 mph67%29.83 "Hg9 mi
12:52 AM73 °FPassing clouds.6 mph74%29.85 "Hg10 mi
11:52 PM
Aug 28
76 °FPassing clouds.No wind67%29.85 "Hg10 mi
10:52 PM77 °FClear.No wind69%29.85 "Hg10 mi
Weather by CustomWeather, © 2014

See weather overviewHow to use our weather pages